Regional Weather Roundup
Issued by NWS

Home | Current Version | Previous Version | Text Only | Print | Product List | Glossary Off
Versions: 1 2 3 4 5 6 7 8 9 10 11 12 13 14 15 16 17 18 19 20 21 22 23 24 25 26 27 28 29 30 31 32 33 34 35 36 37 38 39 40 41 42 43 44 45 46 47 48 49 50

000
ASUS43 KOAX 230302
RWRNE

WEATHER ROUNDUP FOR NEBRASKA
NATIONAL WEATHER SERVICE OMAHA NE
1000 PM CDT TUE APR 22 2014

NOTES: SATELLITE DATA IS BEING USED TO AUGMENT CLOUD COVER ABOVE
       12000 FEET.
       "FAIR" INDICATES FEW OR NO CLOUDS BELOW 12,000 FEET WITH NO
       SIGNIFICANT WEATHER AND/OR OBSTRUCTIONS TO VISIBILITY.

  * THESE STATIONS DO NOT REPORT WEATHER SUCH AS RAIN...SNOW OR FOG.

NEZ001>004-019>022-054>056-230400-
NEBRASKA PANHANDLE

CITY           SKY/WX    TMP DP  RH WIND       PRES   REMARKS
SCOTTSBLUFF    CLOUDY    68  39  34 E10       29.62F
ALLIANCE       LGT RAIN  67  46  47 SE16      29.68R
CHADRON        CLOUDY    62  48  60 SE15      29.59F
KIMBALL        CLOUDY    60  35  38 CALM      29.68S
SIDNEY         MOCLDY    61  34  36 SE9       29.66S
$$

NEZ057>060-069>072-079>082-230400-
SOUTHWEST NEBRASKA

CITY           SKY/WX    TMP DP  RH WIND       PRES   REMARKS
NORTH PLATTE   CLEAR     66  30  26 SE20G30   29.74S
IMPERIAL       MOCLDY    67  41  38 SE18      29.70S
LEXINGTON      CLEAR     64  33  31 SE22      29.81R
MCCOOK         CLEAR     66  36  32 SE22G33   29.76R
OGALLALA       PTCLDY    66  36  32 SE24G31   29.67F
$$

NEZ005>010-023>029-035>040-094-230400-
NORTH CENTRAL NEBRASKA

CITY           SKY/WX    TMP DP  RH WIND       PRES   REMARKS
VALENTINE      CLOUDY    66  34  30 SE14      29.74R
AINSWORTH      CLOUDY    62  33  33 SE16G25   29.76S
BROKEN BOW     CLEAR     60  33  36 SE17G24   29.81R
O`NEILL        CLEAR     61  27  28 SE17      29.84S
ORD            CLEAR     60  33  36 SE13      29.83R
THEDFORD       PTCLDY    67  35  30 SE18G25   29.75R
$$

NEZ041-046>049-061>064-073>077-083>087-230400-
SOUTH CENTRAL NEBRASKA

CITY           SKY/WX    TMP DP  RH WIND       PRES   REMARKS
GRAND ISLAND   CLEAR     61  31  32 SE18      29.88S
AURORA         CLEAR     58  33  38 SE15      29.90R
HASTINGS       PTCLDY    60  30  32 SE15G22   29.87S
HEBRON         CLEAR     61  31  32 SE13      29.93R
HOLDREGE       PTCLDY    62  33  33 SE17      29.83S
KEARNEY *      CLEAR     61  32  33 SE17G24   29.85S
YORK           MOCLDY    59  32  36 SE17G23   29.92S
$$

NEZ011>018-030>034-042>045-230400-
NORTHEAST NEBRASKA

CITY           SKY/WX    TMP DP  RH WIND       PRES   REMARKS
NORFOLK        CLEAR     58  33  39 SE14      29.91S
ALBION         CLEAR     61  28  29 SE14G21   29.89R
BLAIR          CLOUDY    61  32  34 E9        29.98R
COLUMBUS *     CLEAR     61  32  33 SE9       29.93S
FREMONT        CLOUDY    63  32  31 E10       29.97R
TEKAMAH        CLOUDY    61  33  35 E12       29.97F
$$

NEZ050>053-065>068-078-088>093-230400-
SOUTHEAST NEBRASKA

CITY           SKY/WX    TMP DP  RH WIND       PRES   REMARKS
LINCOLN        PTCLDY    65  31  28 SE13      29.96S
OMAHA EPPLEY   CLOUDY    63  33  32 E12       29.98R
BEATRICE       PTCLDY    63  32  31 SE9       29.97R
FALLS CITY     MOCLDY    58  36  43 E7        29.98R
NEBRASKA CITY  CLOUDY    63  32  31 SE9       29.99R
PLATTSMOUTH    CLOUDY    62  31  31 E8        29.98S
$$

NEZ044-045-051>053-067-230400-
OMAHA AREA

CITY           SKY/WX    TMP DP  RH WIND       PRES   REMARKS
OMAHA EPPLEY   CLOUDY    63  33  32 E12       29.98R
BLAIR          CLOUDY    61  32  34 E9        29.98R
FREMONT        CLOUDY    63  32  31 E10       29.97R
MILLARD        MOCLDY    63  33  33 SE6       29.98R
OFFUTT AFB     CLOUDY    62  35  36 E12       29.98R
PLATTSMOUTH    CLOUDY    62  31  31 E8        29.98S
WAHOO          CLOUDY    59  31  35 SE9       29.96R
$$



USA.gov is the U.S. government's official web portal to all federal, state and local government web resources and services.